This is the latest recevied weather packets stored in our database for station/object EB2EMZ-3. If no packets are shown the sender has not sent any weather packets the latest 10 day(s).
| Time | Temp. | Humidity | Pressure | Rain* | Wind** | Luminosity | Snow |
|---|---|---|---|---|---|---|---|
| 1777927178 | 14.44° C | 89% | 1011.7 hPa | 0 mm | - | - | - |
| 1777926878 | 14.44° C | 89% | 1011.8 hPa | 0 mm | - | - | - |
| 1777926578 | 14.44° C | 89% | 1011.6 hPa | 0 mm | - | - | - |
| 1777926278 | 14.44° C | 89% | 1011.6 hPa | 0 mm | - | - | - |
| 1777925978 | 15° C | 89% | 1011.4 hPa | 0 mm | - | - | - |
| 1777925678 | 15° C | 89% | 1011.5 hPa | 0 mm | - | - | - |
| 1777925378 | 15° C | 89% | 1011.5 hPa | 0 mm | - | - | - |
| 1777925078 | 15° C | 88% | 1011.5 hPa | 0 mm | - | - | - |
| 1777924778 | 15° C | 89% | 1011.5 hPa | 0 mm | - | - | - |
| 1777924478 | 15° C | 88% | 1011.4 hPa | 0.51 mm | - | - | - |
| 1777924178 | 15° C | 88% | 1011.4 hPa | 0.51 mm | - | - | - |
| 1777923878 | 15° C | 88% | 1011.5 hPa | 2.03 mm | - | - | - |
| 1777923578 | 15° C | 88% | 1011.3 hPa | 3.56 mm | - | - | - |
| 1777923278 | 15° C | 88% | 1011.3 hPa | 3.56 mm | - | - | - |
| 1777922978 | 14.44° C | 88% | 1011.2 hPa | 4.06 mm | - | - | - |
| 1777922678 | 14.44° C | 88% | 1011.3 hPa | 4.06 mm | - | - | - |
| 1777922378 | 14.44° C | 87% | 1011.3 hPa | 4.06 mm | - | - | - |
| 1777922078 | 14.44° C | 87% | 1011.2 hPa | 4.06 mm | - | - | - |
| 1777921778 | 15° C | 86% | 1011.1 hPa | 4.06 mm | - | - | - |
| 1777921478 | 15° C | 85% | 1011.2 hPa | 4.06 mm | - | - | - |
| 1777921178 | 15° C | 84% | 1011.2 hPa | 4.06 mm | - | - | - |
| 1777920878 | 15° C | 82% | 1010.9 hPa | 3.56 mm | - | - | - |
| 1777920578 | 15° C | 82% | 1011 hPa | 3.56 mm | - | - | - |
| 1777920278 | 15.56° C | 80% | 1011 hPa | 0.51 mm | - | - | - |
| 1777919978 | 16.67° C | 76% | 1011.1 hPa | 0.51 mm | - | - | - |
* Rain latest hour (hover to see other rain measurements)
** Current wind speed in m/s (hover to see current wind gust speed)